SCP
0 0 0 0 0 0 0 0 0 0 0 0 0 0 0 0 0 0 0 0 0 0 0 0 0 0 0 0 0 0 0 0 0 0 0 0 0 0 0 0 0 0 0
0 0 0 0 0 0 0 0 0 0 0 0 0 0 0 0 0 0 0 0 0 0 0 0 0 0 0 0 0 0 0 0 0 0 0 0 0 0 0 0 0 0 0
0 0 0 0 0 0 0 0 0 0 0 0 0 0 0 0 0 0 0 0 0 0 0 0 0 0 0 0 0 0 0 0 0 0 0 0 0 0 0 0 0 0 0
1 1 0 0 0 0 0 0 0 0 0 0 0 0 0 0 0 0 0 0 0 0 0 0 0 0 0 0 0 0 0 0 0 0 0 0 0 0 0 0 0 0 0
0 1 1 0 0 0 0 0 0 0 0 0 0 0 0 0 0 0 0 0 0 0 0 0 0 0 0 0 0 0 0 0 0 0 0 0 0 0 0 0 0 0 0
0 1 1 1 0 0 0 0 0 0 0 0 0 0 0 0 0 0 0 0 0 0 0 0 0 0 0 0 0 0 0 0 0 0 0 0 0 0 0 0 0 0 0
0 0 1 1 0 0 0 0 0 0 0 0 0 0 0 0 0 0 0 0 0 0 0 0 0 0 0 0 0 0 0 0 0 0 0 0 0 0 0 0 0 0 0
0 0 1 1 0 0 0 0 0 0 0 0 0 0 0 0 0 0 0 0 0 0 0 0 0 0 0 0 0 0 0 0 0 0 0 0 0 0 0 0 0 0 0
0 0 1 1 0 0 0 0 0 0 0 0 0 0 0 0 0 0 0 0 0 0 0 0 0 0 0 0 0 0 0 0 0 0 0 0 0 0 0 0 0 0 0
0 1 1 0 0 0 0 0 0 0 0 0 0 0 0 0 0 0 0 0 0 0 0 0 0 0 0 0 0 0 0 0 0 0 0 0 0 0 0 0 0 0 0
1 1 1 1 0 0 0 0 0 0 0 0 0 0 0 0 0 0 0 0 0 0 0 0 0 0 0 0 0 0 0 0 0 0 0 0 0 0 0 0 0 0 0
1 1 1 1 1 0 0 0 0 0 0 0 0 0 0 0 0 0 0 0 0 0 0 0 0 0 0 0 0 0 0 0 0 0 0 0 0 0 0 0 0 0 0
1 1 1 1 1 1 1 1 1 0 0 0 0 0 0 0 0 0 0 0 0 0 0 0 0 0 0 0 0 0 0 0 0 0 0 0 0 0 0 0 0 0 0
1 1 1 1 1 1 1 1 1 1 0 0 0 0 0 0 0 0 0 0 0 0 0 0 0 0 0 0 0 0 0 0 0 0 0 0 0 0 0 0 0 0 0
1 1 1 1 1 1 1 1 1 1 0 0 0 0 0 0 0 0 0 0 0 0 0 0 0 0 0 0 0 0 0 0 0 0 0 0 0 0 0 0 0 0 0
1 1 1 1 1 1 1 1 1 1 0 0 0 0 0 0 0 0 0 0 0 0 0 0 0 0 0 0 0 0 0 0 0 0 0 0 0 0 0 0 0 0 0
1 1 1 1 1 1 1 1 1 1 0 0 0 0 0 0 0 0 0 0 0 0 0 0 0 0 0 0 0 0 0 0 0 0 0 0 0 0 0 0 0 0 0
1 1 1 1 1 1 1 1 1 1 0 0 0 0 0 0 0 0 0 0 0 0 0 0 0 0 0 0 0 0 0 0 0 0 0 0 0 0 0 0 0 0 0
1 1 1 1 1 1 1 1 1 1 1 0 0 0 0 0 0 0 0 0 0 0 0 0 0 0 0 0 0 0 0 0 0 0 0 0 0 0 0 0 0 0 0
1 1 1 1 1 1 1 1 1 1 0 0 0 0 0 0 0 0 0 0 0 0 0 0 0 0 0 0 0 0 0 0 0 0 0 0 0 0 0 0 0 0 0
1 1 1 1 1 1 1 1 1 1 0 0 0 0 0 0 0 0 0 0 0 0 0 0 0 0 0 0 0 0 0 0 0 0 0 0 0 0 0 0 0 0 0
0 0 1 1 1 1 1 1 1 1 0 0 0 0 0 0 0 0 0 0 0 0 0 0 0 0 0 0 0 0 0 0 0 0 0 0 0 0 0 0 0 0 0
0 0 0 0 1 1 1 1 1 0 0 0 0 0 0 0 0 0 0 0 0 0 0 0 0 0 0 0 0 0 0 0 0 0 0 0 0 0 0 0 0 0 0
0 0 0 0 0 1 1 0 0 0 0 0 0 0 0 0 0 0 0 0 0 0 0 0 0 0 0 0 0 0 0 0 0 0 0 0 0 0 0 0 0 0 0
0 0 0 0 0 0 0 0 0 0 0 0 0 0 0 0 0 0 0 0 0 0 0 0 0 0 0 0 0 0 0 0 0 0 0 0 0 0 0 0 0 0 0
0 0 0 0 0 0 0 0 0 0 0 0 0 0 0 0 0 0 0 0 0 0 0 0 0 0 0 0 0 0 0 0 0 0 0 0 0 0 0 0 0 0 0
Wind_Speed
14 17 17 15 14 14 14 14 14 15 15 15 14 13 12 11 10 10 9 8 8 8 7 7 8 7 7 7 7 8 9 10 11 12 13 13 13 14 14 14 12 13 15
18 19 18 15 15 15 14 14 14 15 15 14 13 12 12 11 10 9 9 8 8 8 8 8 8 7 7 7 8 8 9 10 11 12 12 13 13 13 12 11 10 12 14
19 20 19 15 15 15 15 14 14 14 14 14 13 12 11 10 10 9 9 8 8 8 8 8 8 8 7 8 8 9 9 10 11 11 11 10 12 12 11 12 14 14 13
20 19 18 18 16 16 15 15 14 14 14 14 13 12 11 10 10 9 9 8 8 8 8 8 8 8 8 8 8 9 9 10 10 10 7 8 10 12 12 13 13 13 12
19 18 18 19 17 16 15 15 14 14 14 13 12 11 11 10 9 9 9 8 8 8 8 8 8 8 8 8 8 8 9 10 9 7 7 7 9 12 12 12 12 12 12
19 18 20 18 17 16 15 15 15 14 14 13 12 11 10 10 9 9 8 8 8 8 8 8 8 7 7 7 7 8 9 9 9 7 7 7 9 11 12 12 12 12 12
18 17 20 18 17 17 16 15 14 14 13 13 11 10 10 9 9 8 8 7 8 8 8 8 7 7 6 6 7 8 8 6 4 7 7 7 9 11 11 11 11 12 11
17 17 19 18 17 16 15 15 14 14 13 12 11 10 9 9 8 7 7 7 7 8 7 7 6 6 5 5 5 7 7 7 6 6 6 8 11 9 11 11 11 11 11
16 16 17 17 16 16 15 14 14 13 12 11 10 10 9 8 8 7 6 6 6 6 6 6 6 5 5 5 5 6 6 5 4 5 6 7 10 9 11 11 10 10 10
15 15 15 15 14 15 15 14 13 12 12 11 10 9 9 8 8 6 7 6 5 5 5 5 5 5 5 5 5 6 6 7 4 6 5 9 10 9 10 10 10 10 10
14 13 14 14 13 13 13 14 14 13 11 11 10 9 8 7 8 7 6 6 4 4 4 4 4 4 3 6 6 6 7 4 5 3 4 11 9 9 9 10 10 10 10
16 15 12 13 13 12 10 11 9 9 10 8 7 8 6 4 3 3 9 4 4 4 5 4 4 5 7 5 8 8 4 3 4 4 7 11 8 8 9 9 9 10 10
17 15 13 12 12 11 8 8 6 5 6 7 7 6 4 3 3 3 4 6 5 6 5 7 7 4 2 1 1 2 1 2 1 3 8 10 8 9 9 9 9 9 9
16 15 14 13 11 10 8 7 7 6 6 5 6 6 4 3 2 2 2 3 3 3 2 3 2 2 2 2 1 1 2 2 2 2 7 9 8 8 9 9 9 9 9
15 15 13 12 11 10 8 6 7 6 6 6 5 5 4 3 3 2 2 1 3 2 3 3 2 3 3 4 3 3 2 1 2 3 6 9 9 9 9 9 9 9 9
14 14 13 13 12 11 8 7 6 6 5 5 5 5 4 2 2 2 3 2 2 2 1 2 2 3 3 2 3 3 3 3 3 3 5 8 9 9 9 10 10 10 10
14 13 13 13 12 11 10 9 6 6 6 5 4 4 4 3 3 3 2 3 2 2 2 3 3 3 4 4 4 3 3 3 4 4 4 5 7 9 9 9 9 10 10
13 13 13 12 12 11 9 8 6 5 5 4 4 4 4 3 3 3 3 3 2 3 3 2 3 3 2 3 3 2 3 3 4 4 4 4 4 6 9 9 8 9 10
13 14 13 12 12 11 10 7 7 5 5 4 4 4 4 4 4 4 2 2 3 3 2 2 2 2 2 2 3 4 3 3 4 4 4 5 5 4 5 9 9 8 10
12 13 13 12 11 10 8 7 6 6 5 4 4 4 4 4 4 3 3 3 3 2 2 1 1 1 1 2 2 3 3 3 3 4 4 5 5 6 6 6 7 8 10
11 12 12 11 11 10 8 8 7 7 6 5 5 5 5 4 5 3 2 4 3 2 1 3 3 4 3 2 3 3 4 4 4 4 3 3 5 5 4 5 5 4 6
12 12 12 12 12 11 8 7 6 6 5 5 4 5 5 5 5 4 2 3 3 2 2 2 2 2 2 2 3 3 4 4 5 4 4 4 4 5 6 6 5 4 5
11 12 12 12 12 11 10 7 7 6 5 5 5 5 5 5 4 3 3 3 2 4 3 2 3 4 3 3 2 3 2 2 3 4 4 3 3 3 4 4 6 5 6
11 11 12 12 12 11 11 10 11 8 7 6 6 5 6 5 5 4 4 3 3 2 2 4 3 2 3 3 3 2 3 5 3 2 5 5 5 4 4 4 4 5 6
10 11 11 11 12 12 11 11 11 8 6 6 6 7 6 6 5 5 4 4 3 2 2 1 1 3 3 4 3 3 3 3 5 4 2 3 4 5 4 5 4 3 4
9 10 10 11 11 12 12 12 11 10 8 8 8 8 7 6 6 6 5 4 4 2 3 2 2 3 2 2 3 3 3 3 4 4 4 4 3 3 4 3 4 4 4
Wind_Direction
158 146 145 150 146 141 137 134 134 134 135 137 136 134 134 133 133 132 128 121 114 106 98 93 90 89 93 100 107 112 115 117 117 118 117 117 114 113 116 121 125 112 114
150 144 147 151 148 144 140 137 134 133 134 135 135 135 134 135 136 135 128 121 114 106 99 94 91 90 93 99 106 113 119 121 124 124 124 123 118 116 117 115 104 110 119
148 144 152 152 149 145 141 138 135 135 134 134 134 134 134 134 131 128 125 118 112 107 103 98 93 92 95 102 109 114 119 123 127 131 140 132 122 119 115 109 110 119 120
149 148 153 149 150 147 143 140 138 137 136 136 135 134 132 130 128 125 120 117 113 108 104 99 95 95 97 103 110 114 120 125 130 154 153 128 126 121 122 120 121 124 123
149 149 144 152 152 149 145 142 141 139 138 137 136 135 132 130 128 123 117 113 108 107 102 96 95 96 99 106 113 117 121 128 149 181 117 114 112 125 127 127 128 125 125
150 151 145 156 153 151 148 146 143 141 139 138 137 136 134 131 128 122 117 113 107 103 98 95 96 98 100 105 115 124 128 143 187 131 121 126 119 128 130 131 133 129 128
155 152 147 157 154 153 151 149 146 143 142 140 139 138 136 131 126 123 119 114 107 102 98 95 95 98 101 109 120 130 138 174 176 121 132 125 115 130 134 134 133 132 131
156 152 145 156 156 155 154 152 148 146 144 143 141 139 136 129 125 125 125 117 109 102 99 97 93 91 95 104 120 135 152 207 144 130 132 119 118 137 135 135 134 134 136
159 152 151 159 159 158 156 154 152 150 148 145 142 140 136 133 134 132 125 121 116 112 109 105 98 87 82 94 117 132 152 234 173 132 136 115 130 143 140 139 139 138 139
163 156 156 163 161 163 159 157 154 152 151 146 144 144 142 144 149 144 156 130 126 126 125 119 109 94 84 93 117 133 156 210 167 149 137 119 139 150 148 146 146 144 143
166 162 164 161 163 166 161 153 158 156 153 156 155 152 171 175 160 169 123 122 139 143 140 133 122 114 134 132 128 150 187 204 137 144 112 117 149 157 154 151 153 151 149
170 170 166 162 164 167 160 154 163 165 159 175 156 165 179 155 159 148 118 145 154 159 165 151 140 177 225 166 147 183 201 170 151 151 116 132 156 163 159 159 158 159 159
170 171 168 166 169 164 158 159 159 158 159 166 158 167 162 175 175 178 168 166 178 189 192 160 190 207 200 95 203 169 125 181 164 153 125 147 166 169 167 169 168 169 167
169 172 171 165 166 167 162 159 161 163 164 163 156 182 170 184 195 178 202 179 188 187 179 204 191 180 186 191 217 147 170 221 167 132 126 155 168 171 173 178 180 180 177
170 172 170 166 165 164 162 171 165 164 163 157 159 170 185 186 192 177 189 213 231 185 187 202 203 181 193 197 209 174 185 182 178 184 135 160 172 176 179 185 190 191 188
173 173 170 170 168 167 169 170 161 162 160 160 165 160 187 193 178 189 191 194 215 219 224 223 189 194 212 195 200 181 192 174 169 197 160 160 175 184 191 193 194 196 194
174 175 175 174 172 172 171 169 164 165 162 163 151 157 178 193 178 199 187 193 185 189 185 215 203 210 211 197 190 188 183 187 167 189 186 172 171 181 191 195 198 200 200
178 176 179 178 173 172 169 168 162 164 154 160 157 157 170 172 186 210 197 176 160 196 194 188 225 211 206 206 184 191 169 170 185 190 192 189 187 185 179 187 200 203 204
183 181 180 180 175 172 166 165 158 153 153 156 160 161 158 177 182 209 198 128 194 198 200 214 170 232 197 199 185 172 180 175 177 186 187 190 187 203 180 170 194 203 208
186 184 178 176 172 166 161 160 157 154 157 159 161 152 162 173 179 196 175 165 214 193 186 187 146 205 242 212 212 153 180 170 185 171 202 185 189 196 201 187 190 194 203
182 180 176 176 170 168 166 168 166 162 164 160 163 158 169 176 169 202 186 162 227 191 211 193 203 173 195 190 204 182 177 185 180 182 204 203 181 189 193 195 218 202 187
181 180 178 177 175 174 169 166 164 156 163 154 154 150 170 175 179 181 200 198 191 173 191 207 232 243 162 198 245 216 192 178 195 186 188 199 193 191 194 195 202 205 234
184 185 180 176 174 175 165 158 153 152 160 159 163 164 177 180 183 175 185 215 189 219 171 205 212 228 216 193 254 279 264 216 171 173 199 194 202 212 207 189 206 200 218
187 182 178 174 172 171 168 173 173 177 175 171 172 161 169 181 183 178 183 189 215 222 158 208 187 233 248 222 186 260 313 347 294 182 187 187 194 214 222 224 209 196 210
177 174 170 169 169 170 177 178 180 182 174 165 167 160 178 175 188 188 187 186 198 213 177 239 168 249 243 261 237 214 220 232 261 280 240 192 196 203 202 215 224 216 207
168 168 167 165 166 171 178 181 185 180 174 167 174 171 186 177 186 185 189 190 200 195 177 199 207 200 260 293 284 258 242 244 245 255 257 237 221 193 196 224 236 226 226